Regional Weather Roundup
Issued by NWS Portland, ME

Home | Current Version | Previous Version | Text Only | Print | Product List | Glossary On
Versions: 1 2 3 4 5 6 7 8 9 10 11 12 13 14 15 16 17 18 19 20 21 22 23 24 25 26 27 28 29 30 31 32 33 34 35 36 37 38 39 40 41 42 43 44 45 46 47 48 49 50
000
ASUS41 KGYX 251110
RWRGYX
WEATHER ROUNDUP FOR MAINE AND NEW HAMPSHIRE
NATIONAL WEATHER SERVICE GRAY ME
700 AM EDT SAT APR 25 2015

MEZ002-005-006-010-012-015-018-020-021-024-026-027-029-251200-
MAINE

CITY           SKY/WX    TMP DP  RH WIND       PRES   REMARKS
PORTLAND       CLOUDY    37  25  61 W7        29.72S
SANFORD        PTSUNNY   36  21  55 W12G18    29.73R
BAR HARBOR     CLOUDY    34  30  86 CALM      29.66S
WISCASSET      CLOUDY    36  25  64 VRB3      29.72R
ROCKLAND       CLOUDY    36  25  64 W12       29.68R
FRYEBURG       PTSUNNY   35  23  61 W7        29.71S
LEWISTONAUBURN CLOUDY    36  23  60 NW7       29.70R
AUGUSTA        PTSUNNY   35  23  61 W7        29.68R
WATERVILLE     MOSUNNY   36  21  55 W13       29.65R
BANGOR         CLOUDY    34  28  79 W5        29.66R
GREENVILLE       N/A     29  27  92 NW8       29.58R
MILLINOCKET    CLOUDY    35  29  78 NW7       29.63R
HOULTON        CLOUDY    34  32  92 N6        29.59R
PRESQUE ISLE   CLOUDY    34  28  80 N5        29.61R
FRENCHVILLE    CLOUDY    32  30  92 CALM      29.60R
CARIBOU        CLOUDY    33  31  92 N5        29.60R
$$

NHZ002-005-008-009-011-012-014-251200-
NEW HAMPSHIRE

CITY           SKY/WX    TMP DP  RH WIND       PRES   REMARKS
PORTSMOUTH     PTSUNNY   37  23  57 W13       29.73R
ROCHESTER      CLOUDY    36  22  56 NW14G20   29.72R
NASHUA         SUNNY     37  22  55 NW7       29.78R
MANCHESTER     MOSUNNY   36  21  54 NW14      29.76R
CONCORD        MOSUNNY   35  22  58 NW6       29.77R
LACONIA        MOSUNNY   34  21  60 W13G18    29.74R
PLYMOUTH       CLOUDY    34  27  75 CALM      29.76R
BERLIN         FLURRIES  31  24  75 VRB6G21   29.70S
WHITEFIELD     LGT SNOW  31  24  75 W5        29.75R
JAFFREY        SUNNY     32  21  64 CALM      29.76R
KEENE          SUNNY     28  23  80 CALM      29.79R
LEBANON        CLOUDY    35  21  56 CALM      29.78R
MT WASHINGTON  SNOW       9   9 100 NW72        N/A  VSB 0   WCI -23
$$

VTZ005-007-008-251200-
VERMONT

CITY           SKY/WX    TMP DP  RH WIND       PRES   REMARKS
ST JOHNSBURY     N/A     32  24  72 MISG      29.76S
MONTPELIER     CLOUDY    30  21  69 NW12      29.81R
BURLINGTON     CLOUDY    35  20  54 NW8       29.83S
$$

MAZ007-012-024-CTZ003-RIZ002-NYZ038-NYZ072-251200-
SOUTHERN NEW ENGLAND AND NY

CITY           SKY/WX    TMP DP  RH WIND       PRES   REMARKS
BOSTON         MOSUNNY   37  23  56 W9        29.79R
WORCESTER      SUNNY     32  21  64 W9        29.76R
NANTUCKET      SUNNY     40  25  55 W13       29.80R
PROVIDENCE     SUNNY     35  22  58 W12       29.82S
HARTFORD       SUNNY     37  23  56 W9        29.84R
ALBANY         MOSUNNY   34  23  64 W10       29.88R
NEW YORK CITY  PTCLDY    39  23  52 W10       29.91S
$$

ANZ081-ANZ082-ANZ150-NHZ014-MEZ023>029-251200-
COASTAL MARINE OBSERVATIONS

STATION/POSITION TIME  TEMP    WIND        PRES    WAVE
                       AIR SEA DIR/SP/G            HT/PER
                 (UTC) (F)     (DEG/KT/KT) (MB)    (FT/S)
$$

.............KEY..............
   WCI - WIND CHILL
   TC  - TEMPERATURE IN CELSIUS
   VSB - VISIBILITY IN MILES
   HX  - HEAT INDEX
   FAIR- INDICATES FEW OR NO CLOUDS BELOW 12,000 FT, WITH NO
         SIGNIFICANT WEATHER AND/OR OBSTRUCTIONS TO VISIBILITY.





USA.gov is the U.S. government's official web portal to all federal, state and local government web resources and services.